TimeAKST,TemperatureF,Dew PointF,Humidity,Sea Level PressureIn,VisibilityMPH,Wind Direction,Wind SpeedMPH,Gust SpeedMPH,PrecipitationIn,Events,Conditions,WindDirDegrees,DateUTC
12:53 AM,37.0,28.9,73,29.71,10.0,East,6.9,-,0.00,,Overcast,90,2013-01-04 09:53:00
1:53 AM,37.0,28.9,73,29.72,10.0,East,3.5,-,N/A,,Overcast,100,2013-01-04 10:53:00
2:53 AM,37.0,28.0,70,29.73,10.0,ENE,8.1,-,N/A,,Overcast,70,2013-01-04 11:53:00
3:53 AM,37.0,28.9,73,29.74,10.0,ENE,8.1,-,0.00,,Overcast,60,2013-01-04 12:53:00
4:53 AM,36.0,30.9,82,29.75,10.0,East,5.8,-,0.01,,Overcast,90,2013-01-04 13:53:00
5:10 AM,35.6,30.2,81,29.75,10.0,East,6.9,-,0.00,Rain,Light Rain,80,2013-01-04 14:10:00
5:53 AM,37.0,30.0,76,29.75,10.0,ENE,11.5,18.4,0.00,,Overcast,70,2013-01-04 14:53:00
6:40 AM,35.6,30.2,81,29.77,5.0,East,11.5,23.0,0.02,Rain,Light Rain,100,2013-01-04 15:40:00
6:53 AM,36.0,30.9,82,29.78,8.0,East,8.1,19.6,0.02,Rain,Light Rain,100,2013-01-04 15:53:00
7:53 AM,34.0,32.0,92,29.82,8.0,ESE,6.9,-,0.03,Rain,Light Rain,110,2013-01-04 16:53:00
8:09 AM,33.8,32.0,93,29.82,2.5,ENE,3.5,-,0.02,Snow,Light Snow,70,2013-01-04 17:09:00
8:20 AM,33.8,32.0,93,29.82,3.0,East,3.5,-,0.04,Snow,Light Snow,80,2013-01-04 17:20:00
8:38 AM,33.8,30.2,87,29.83,5.0,ESE,3.5,-,0.05,Snow,Light Snow,120,2013-01-04 17:38:00
8:53 AM,34.0,30.9,89,29.84,4.0,Calm,Calm,-,0.07,Snow,Light Snow,0,2013-01-04 17:53:00
9:53 AM,34.0,32.0,92,29.88,10.0,Calm,Calm,-,0.01,Rain,Light Rain,0,2013-01-04 18:53:00
10:53 AM,35.1,32.0,89,29.91,10.0,Calm,Calm,-,0.00,,Overcast,0,2013-01-04 19:53:00
11:53 AM,36.0,33.1,89,29.92,10.0,Calm,Calm,-,N/A,,Overcast,0,2013-01-04 20:53:00
12:53 PM,37.0,32.0,82,29.92,10.0,ESE,4.6,-,0.01,Rain,Light Rain,120,2013-01-04 21:53:00
1:53 PM,37.0,33.1,86,29.94,10.0,ESE,4.6,-,0.00,Rain,Light Rain,110,2013-01-04 22:53:00
2:01 PM,37.4,33.8,87,29.93,10.0,East,5.8,-,0.00,,Overcast,100,2013-01-04 23:01:00
2:10 PM,37.4,33.8,87,29.93,8.0,Calm,Calm,-,0.01,Rain,Light Rain,0,2013-01-04 23:10:00
2:53 PM,36.0,34.0,93,29.92,10.0,North,3.5,-,0.01,,Overcast,350,2013-01-04 23:53:00
3:22 PM,35.6,33.8,93,29.91,10.0,Calm,Calm,-,N/A,,Overcast,0,2013-01-05 00:22:00
3:53 PM,35.1,34.0,96,29.92,10.0,Calm,Calm,-,N/A,,Overcast,0,2013-01-05 00:53:00
4:53 PM,37.0,33.1,86,29.92,10.0,East,3.5,-,N/A,,Overcast,90,2013-01-05 01:53:00
5:53 PM,35.1,33.1,92,29.90,10.0,Calm,Calm,-,N/A,,Overcast,0,2013-01-05 02:53:00
6:53 PM,37.9,33.1,83,29.89,9.0,East,3.5,-,0.00,,Overcast,100,2013-01-05 03:53:00
7:53 PM,37.9,32.0,79,29.88,10.0,Calm,Calm,-,0.00,,Overcast,0,2013-01-05 04:53:00
8:53 PM,39.9,28.9,65,29.86,10.0,ESE,5.8,-,0.00,,Overcast,110,2013-01-05 05:53:00
9:53 PM,39.9,28.0,63,29.84,10.0,ESE,4.6,-,N/A,,Overcast,110,2013-01-05 06:53:00
10:53 PM,41.0,28.0,60,29.82,10.0,East,6.9,16.1,N/A,,Overcast,100,2013-01-05 07:53:00
11:53 PM,41.0,28.0,60,29.80,10.0,East,3.5,-,N/A,,Overcast,90,2013-01-05 08:53:00